[[{"header":{"parameterUnit":"m.s-1","parameterCategory":2,"la1":30.2991,"la2":30.254,"lo1":-89.0895,"lo2":-89.0444,"dy":0.0017,"dx":0.0017,"nx":28,"ny":28,"refTime":"2023-08-03T03:00:00:Z","depth":"0","parameterNumber":2,"parameterNumberName":"U-component_of_CURRENTS"},"data":[0,0,0,0,0,0,0,0,0,0,0,0,0,0,0,0,0,0,0,0,0,0,0,0,0,0,0,0,0,0,0,0,0,0,0,0,0,0,0,0,0,0,0,0,0,0,0,0,0,0,0,0,0,0,0,0,0,0,0.302,0.3021,0,0.3184,0.3186,0.3189,0.3263,0.3262,0.3262,0.3262,0.3307,0.3308,0.331,0,0,0,0,0,0,0,0,0,0,0,0,0,0.2852,0.2854,0.302,0.3022,0.3023,0.3184,0.3187,0.3189,0.3263,0.3262,0.3262,0.3261,0.3306,0.3308,0.331,0,0,0,0,0,0,0,0,0,0,0,0,0,0.2964,0.2855,0.3019,0.3078,0.3085,0.3184,0.3187,0.319,0.3263,0.3262,0.3262,0.3261,0.3306,0.3308,0.331,0.3337,0,0,0.3318,0.3319,0,0,0,0,0,0,0,0,0.2957,0.297,0.3067,0.3074,0.3082,0.32,0.3144,0.3232,0.3263,0.3198,0.3262,0.3261,0.3259,0.3265,0.3303,0.334,0.3341,0.3318,0.3319,0.332,0.3321,0,0,0,0,0,0,0,0.2949,0.2964,0.3087,0.3069,0.3078,0.3124,0.3139,0.3162,0.3229,0.3204,0.3209,0.3223,0.3262,0.3301,0.3304,0.3342,0.3318,0.332,0.3321,0.3322,0.3584,0.359,0,0,0,0,0,0,0.2921,0.2956,0.3082,0.3092,0.3014,0.3127,0.3144,0.3165,0.3232,0.3242,0.3224,0.3226,0.3297,0.3301,0.3306,0.3494,0.332,0.3323,0.3324,0.3579,0.3586,0.3592,0,0,0,0,0,0,0.2917,0.2931,0.3076,0.3025,0.3047,0.3129,0.3154,0.3168,0.3212,0.3248,0.3256,0.3252,0.3296,0.3302,0.3366,0.349,0.3324,0.3326,0.3572,0.3581,0.3589,0.3772,0,0,0,0,0,0,0.2911,0.2928,0.2938,0.3024,0.3048,0.3164,0.3154,0.3172,0.3221,0.3226,0.3275,0.3279,0.3296,0.3363,0.3369,0.349,0.3328,0.3565,0.3576,0.3586,0.3759,0.3785,0.3808,0,0,0,0,0,0.2905,0.2953,0.2938,0.2954,0.3058,0.3166,0.3186,0.3243,0.3222,0.3272,0.3304,0.3278,0.3435,0.3368,0.3374,0.3499,0.356,0.3573,0.3585,0.3748,0.378,0.3807,0,0,0,0,0,0,0.2908,0.2966,0.2953,0.3018,0.3085,0.3179,0.324,0.3244,0.331,0.3322,0.3317,0.3327,0.3461,0.3436,0.3362,0.3611,0.3506,0.352,0.3628,0.3658,0.3682,0.3723,0.333,0,0,0,0,0,0.29,0.2956,0.3002,0.3069,0.3095,0.3152,0.3198,0.3242,0.3306,0.3335,0.3357,0.3413,0.352,0.3543,0.3625,0.3708,0.3708,0.3805,0.3829,0.385,0.3892,0.3996,0.4034,0.3633,0.3633,0.3632,0,0,0.2934,0.2967,0.3005,0.3073,0.3131,0.3237,0.3184,0.3289,0.3398,0.3327,0.3466,0.3502,0.3568,0.3719,0.3773,0.3701,0.3962,0.3866,0.3883,0.3914,0.4013,0.4052,0.4086,0.3641,0.364,0.3638,0,0,0.3065,0.3044,0.3142,0.3199,0.3283,0.3318,0.3339,0.3423,0.3476,0.3589,0.3614,0.3728,0.3799,0.3925,0.3986,0.4185,0.411,0.418,0.4312,0.4414,0.4447,0.4476,0.4505,0.4536,0.4167,0.4167,0.4168,0,0.3106,0.3199,0.3194,0.3309,0.3355,0.3354,0.3467,0.3556,0.3655,0.369,0.3664,0.3873,0.3946,0.416,0.4265,0.4255,0.423,0.4187,0.4444,0.4474,0.4501,0.4523,0.4554,0.4178,0.4176,0.4175,0.4174,0,0.3322,0.3379,0.345,0.3569,0.3626,0.3727,0.3802,0.387,0.3885,0.3942,0.411,0.421,0.4316,0.4389,0.4401,0.4636,0.4529,0.4479,0.436,0.4552,0.4563,0.4592,0.4192,0.4189,0.4186,0.4183,0,0,0.3453,0.3569,0.3592,0.3627,0.3745,0.3806,0.3978,0.4085,0.4152,0.4275,0.4371,0.4641,0.4616,0.469,0.4716,0.4829,0.504,0.4727,0.4727,0.474,0.518,0.5051,0.5068,0.4982,0.4989,0.4994,0.51,0,0.361,0.3789,0.3823,0.3984,0.405,0.4073,0.4201,0.4306,0.4358,0.4451,0.4591,0.4706,0.4752,0.4776,0.4931,0.5006,0.5126,0.5012,0.5007,0.5008,0.4859,0.5105,0.491,0.4984,0.5128,0.5133,0.5136,0,0.3788,0.3865,0.4016,0.4078,0.4109,0.4208,0.4289,0.4412,0.4556,0.4591,0.4726,0.4771,0.5022,0.4985,0.527,0.5157,0.5219,0.5267,0.5269,0.5114,0.4938,0.4824,0.503,0.4895,0.518,0.5177,0.5174,0,0.3803,0.397,0.4048,0.4096,0.4214,0.4263,0.4315,0.4437,0.4492,0.465,0.4671,0.4921,0.5006,0.5186,0.5343,0.5285,0.5577,0.5496,0.5446,0.5431,0.526,0.522,0.5332,0.5718,0.5718,0.5718,0.5717,0,0.3897,0.3965,0.4045,0.4102,0.4164,0.4248,0.4318,0.4398,0.4502,0.4556,0.4716,0.4796,0.5053,0.5223,0.5369,0.5514,0.5614,0.5544,0.5497,0.5313,0.5278,0.5141,0.5035,0.5721,0.5721,0.572,0.5719,0,0.389,0.3962,0.4039,0.4144,0.4165,0.4198,0.4263,0.4307,0.4411,0.4483,0.4524,0.4726,0.4936,0.5168,0.5439,0.5504,0.5516,0.5687,0.5425,0.5348,0.5126,0.5035,0.4939,0.4808,0.5647,0.5645,0.5643,0,0.3894,0.3936,0.4022,0.4033,0.407,0.4122,0.4142,0.4244,0.4273,0.443,0.445,0.4656,0.4778,0.5122,0.5317,0.5539,0.542,0.5437,0.5359,0.5161,0.5027,0.4839,0.4724,0.5189,0.5184,0.518,0.5176,0,0.3871,0.389,0.3937,0.3959,0.3973,0.3991,0.4024,0.4029,0.4142,0.42,0.4282,0.4387,0.4688,0.4836,0.5114,0.5234,0.5146,0.535,0.5252,0.4803,0.4504,0.4334,0.5018,0.5139,0.5143,0.5145,0.5148,0.5149,0.3803,0.3804,0.3836,0.3844,0.3849,0.3818,0.3784,0.3833,0.3844,0.3893,0.4079,0.4194,0.4459,0.4811,0.4888,0.4874,0.4857,0.4787,0.4728,0.4585,0.4367,0.4943,0.4935,0.4938,0.494,0.4942,0.4944,0,0.3679,0.3696,0.3712,0.3685,0.3627,0.3685,0.3662,0.3607,0.3563,0.3732,0.3802,0.4012,0.4157,0.4367,0.4462,0.432,0.4178,0.4207,0.3935,0.3883,0.4511,0.44,0.4146,0.4146,0.4146,0.4146,0.4146,0.4147,0.3614,0.3578,0.3593,0.3458,0.3436,0.3305,0.3265,0.3221,0.3304,0.3334,0.3442,0.3605,0.3863,0.4004,0.393,0.3863,0.3594,0.3408,0.3422,0.3891,0.3941,0.3989,0.3868,0.3506,0.3505,0.2685,0.2678,0.2673]},{"header":{"parameterUnit":"m.s-1","parameterCategory":2,"la1":30.2991,"la2":30.254,"lo1":-89.0895,"lo2":-89.0444,"dy":0.0017,"dx":0.0017,"nx":28,"ny":28,"refTime":"2023-08-03T03:00:00:Z","depth":"0","parameterNumber":3,"parameterNumberName":"V-component_of_CURRENTS"},"data":[0,0,0,0,0,0,0,0,0,0,0,0,0,0,0,0,0,0,0,0,0,0,0,0,0,0,0,0,0,0,0,0,0,0,0,0,0,0,0,0,0,0,0,0,0,0,0,0,0,0,0,0,0,0,0,0,0,0,0.0041,0.0041,0,0.0001,0.0001,0.0,-0.0044,-0.0045,-0.0045,-0.0046,-0.0068,-0.0068,-0.0068,0,0,0,0,0,0,0,0,0,0,0,0,0,0.0047,0.0048,0.0041,0.0041,0.004,0.0001,0.0001,0.0,-0.0044,-0.0045,-0.0045,-0.0046,-0.0068,-0.0068,-0.0068,0,0,0,0,0,0,0,0,0,0,0,0,0,0.0031,0.0048,0.0041,0.0013,0.001,0.0001,0.0001,0.0,-0.0043,-0.0045,-0.0046,-0.0047,-0.0068,-0.0068,-0.0068,-0.0046,0,0,-0.0068,-0.0068,0,0,0,0,0,0,0,0,0.0032,0.0031,0.0018,0.0015,0.0011,-0.0018,-0.0006,-0.0015,-0.0043,-0.0022,-0.0046,-0.0047,-0.005,-0.0051,-0.0055,-0.0047,-0.0048,-0.0068,-0.0068,-0.0068,-0.0068,0,0,0,0,0,0,0,0.0033,0.0032,0.0026,0.0017,0.0013,-0.0009,-0.0012,-0.0008,-0.0028,-0.0024,-0.0028,-0.0033,-0.0051,-0.0055,-0.0056,-0.0048,-0.0068,-0.0068,-0.0068,-0.0068,0.015,0.0156,0,0,0,0,0,0,0.0039,0.0033,0.0028,0.0025,0.0018,-0.0009,-0.0012,-0.0007,-0.0029,-0.0034,-0.0032,-0.0035,-0.0055,-0.0056,-0.0057,0.0132,-0.0068,-0.0067,-0.0067,0.0145,0.0152,0.0158,0,0,0,0,0,0,0.004,0.004,0.0029,0.0027,0.0024,-0.0007,-0.0001,-0.0007,-0.0005,-0.0035,-0.004,-0.0024,-0.0056,-0.0057,0.0003,0.0124,-0.0067,-0.0067,0.0138,0.0147,0.0155,0.0404,0,0,0,0,0,0,0.004,0.004,0.0052,0.0028,0.0024,0.0062,-0.0001,-0.0007,-0.0008,-0.0012,-0.003,-0.0034,-0.0057,0.0003,0.0003,0.012,-0.0067,0.0131,0.0142,0.0152,0.0388,0.042,0.0447,0,0,0,0,0,0.0041,0.008,0.0053,0.0053,0.004,0.0064,0.0063,0.0035,-0.0006,0.0026,0.0026,-0.0033,0.0072,0.0008,0.0006,0.0126,0.0125,0.0139,0.0151,0.0375,0.0414,0.0446,0,0,0,0,0,0,0.0106,0.0078,0.0049,0.008,0.0082,0.0057,0.0088,0.0047,0.0067,0.0072,0.0021,0.0022,0.0132,0.0089,0.0019,0.0225,0.0096,0.011,0.0268,0.0303,0.0332,0.0389,-0.0067,0,0,0,0,0,0.0119,0.0144,0.0109,0.0148,0.0149,0.0113,0.0116,0.0101,0.0107,0.0112,0.0103,0.0121,0.0184,0.0206,0.0241,0.033,0.0267,0.0414,0.0444,0.0468,0.0518,0.054,0.0575,0.02,0.02,0.02,0,0,0.0165,0.0149,0.0167,0.0163,0.0163,0.0239,0.0116,0.0152,0.0239,0.011,0.0234,0.0218,0.0231,0.036,0.0405,0.0337,0.0534,0.0485,0.0506,0.0543,0.0557,0.0593,0.0625,0.0209,0.0207,0.0206,0,0,0.0309,0.025,0.0335,0.0346,0.0352,0.0334,0.0348,0.0339,0.0356,0.0444,0.041,0.0481,0.0521,0.0594,0.0626,0.0836,0.0689,0.0822,0.1016,0.1037,0.1067,0.1094,0.1011,0.1028,0.0835,0.0836,0.0836,0,0.0378,0.0448,0.037,0.0466,0.049,0.0393,0.0503,0.0532,0.0553,0.059,0.0528,0.0664,0.0667,0.0859,0.0945,0.0912,0.0832,0.0876,0.1074,0.1099,0.1121,0.103,0.1045,0.0849,0.0847,0.0846,0.0845,0,0.0595,0.0644,0.0701,0.0783,0.0805,0.0873,0.088,0.0927,0.0902,0.0914,0.1051,0.1058,0.1128,0.1159,0.1121,0.1308,0.1165,0.1103,0.0977,0.1174,0.1064,0.1076,0.0868,0.0864,0.086,0.0856,0,0,0.0788,0.0839,0.0864,0.09,0.0956,0.0981,0.1148,0.1229,0.1308,0.1351,0.1473,0.161,0.1541,0.1578,0.1534,0.1575,0.1657,0.1412,0.1407,0.1317,0.1604,0.1485,0.1482,0.1594,0.1599,0.1603,0.1443,0,0.0989,0.1142,0.115,0.1317,0.1373,0.135,0.149,0.1555,0.1576,0.167,0.1708,0.1796,0.1722,0.1732,0.1787,0.1705,0.1706,0.1701,0.144,0.1433,0.1294,0.1503,0.1389,0.1238,0.1453,0.1454,0.1455,0,0.1213,0.1259,0.1414,0.148,0.1512,0.1614,0.1715,0.1834,0.1957,0.1974,0.2071,0.2041,0.2177,0.2032,0.2032,0.2007,0.1843,0.1747,0.1737,0.1561,0.1341,0.109,0.1248,0.0991,0.1471,0.147,0.1469,0,0.1289,0.1445,0.1526,0.1561,0.1655,0.1735,0.18,0.1918,0.2009,0.2147,0.2199,0.2306,0.2336,0.2253,0.2103,0.2039,0.2023,0.1893,0.1622,0.1603,0.1435,0.1397,0.1319,0.1862,0.1862,0.1863,0.1863,0,0.1443,0.152,0.1549,0.1594,0.1715,0.1772,0.1924,0.2009,0.2154,0.2285,0.2332,0.2439,0.2386,0.2363,0.2185,0.198,0.2083,0.1713,0.1607,0.1512,0.1484,0.1189,0.1067,0.1856,0.1858,0.1859,0.186,0,0.1493,0.1527,0.1616,0.1704,0.1739,0.1811,0.1964,0.2076,0.22,0.2376,0.2427,0.2545,0.2519,0.2414,0.2267,0.206,0.1713,0.1746,0.1601,0.1485,0.0966,0.0863,0.0711,0.0611,0.1414,0.1411,0.1408,0,0.1511,0.1555,0.1644,0.169,0.1728,0.1838,0.1935,0.2082,0.2206,0.244,0.2536,0.2582,0.2644,0.2413,0.2087,0.1768,0.1574,0.1389,0.1297,0.099,0.0797,0.0748,0.0674,0.112,0.1116,0.1112,0.1109,0,0.1533,0.1557,0.1613,0.1703,0.179,0.1908,0.2054,0.2162,0.2366,0.2518,0.2721,0.2796,0.2575,0.2281,0.1853,0.1596,0.12,0.129,0.105,0.0669,0.054,0.0372,0.1093,0.1074,0.1078,0.108,0.1082,0.1083,0.1527,0.1559,0.1629,0.1721,0.183,0.1983,0.2097,0.227,0.248,0.2744,0.2817,0.2954,0.2478,0.1902,0.1546,0.0773,0.0871,0.05,0.0418,0.0411,0.0306,0.0925,0.0753,0.0755,0.0756,0.0757,0.0758,0,0.1505,0.1556,0.1643,0.177,0.1894,0.1958,0.2185,0.2322,0.2559,0.281,0.2981,0.2787,0.2158,0.1548,0.0517,0.0001,-0.0117,-0.0245,-0.0337,-0.0356,0.0232,0.0209,-0.0179,-0.0179,-0.0178,-0.0178,-0.0178,-0.0177,0.1497,0.156,0.1614,0.1793,0.1895,0.2078,0.2211,0.243,0.2649,0.2896,0.297,0.301,0.2435,0.0725,-0.0467,-0.0713,-0.0959,-0.1049,-0.1102,-0.0746,-0.0682,-0.0621,-0.0669,-0.1234,-0.1235,-0.1668,-0.1673,-0.1677]}],[{"header":{"parameterUnit":"m.s-1","parameterCategory":2,"la1":30.2991,"la2":30.254,"lo1":-89.0895,"lo2":-89.0444,"dy":0.0017,"dx":0.0017,"nx":28,"ny":28,"refTime":"2023-08-03T03:00:00:Z","depth":"2","parameterNumber":2,"parameterNumberName":"U-component_of_CURRENTS"},"data":[0,0,0,0,0,0,0,0,0,0,0,0,0,0,0,0,0,0,0,0,0,0,0,0,0,0,0,0,0,0,0,0,0,0,0,0,0,0,0,0,0,0,0,0,0,0,0,0,0,0,0,0,0,0,0,0,0,0,0.2467,0.2467,0,0.2552,0.2553,0.2555,0.2681,0.2682,0.2683,0.2684,0.2851,0.2855,0.2858,0,0,0,0,0,0,0,0,0,0,0,0,0,0.2409,0.2411,0.2467,0.2467,0.2467,0.2551,0.2554,0.2556,0.2681,0.2682,0.2683,0.2685,0.285,0.2854,0.2858,0,0,0,0,0,0,0,0,0,0,0,0,0,0.2469,0.2411,0.2467,0.2531,0.2537,0.2551,0.2554,0.2556,0.268,0.2682,0.2684,0.2685,0.2849,0.2854,0.2859,0.2855,0,0,0.2874,0.2877,0,0,0,0,0,0,0,0,0.2465,0.2473,0.2522,0.2527,0.2533,0.2598,0.2594,0.2656,0.268,0.2638,0.2684,0.2686,0.2765,0.2777,0.2805,0.2863,0.287,0.2875,0.2878,0.288,0.2881,0,0,0,0,0,0,0,0.2461,0.2469,0.2512,0.2522,0.2528,0.2553,0.2565,0.2607,0.2701,0.2642,0.2648,0.2639,0.2771,0.2799,0.2809,0.2873,0.2875,0.2879,0.2882,0.2884,0.3151,0.3155,0,0,0,0,0,0,0.2426,0.2465,0.2509,0.2514,0.249,0.2552,0.2566,0.2584,0.2699,0.2714,0.2637,0.2644,0.279,0.2803,0.2816,0.303,0.288,0.2885,0.2888,0.3147,0.3152,0.3157,0,0,0,0,0,0,0.2425,0.2431,0.2506,0.2481,0.2491,0.255,0.2571,0.2585,0.266,0.2693,0.2713,0.2701,0.2792,0.2809,0.2881,0.3029,0.2887,0.2892,0.3143,0.3149,0.3155,0.3322,0,0,0,0,0,0,0.2424,0.2431,0.2448,0.2479,0.249,0.2586,0.2568,0.2585,0.2642,0.2654,0.2752,0.2767,0.2794,0.2873,0.2886,0.3034,0.2896,0.3137,0.3145,0.3153,0.3311,0.3333,0.3352,0,0,0,0,0,0.2422,0.2458,0.2449,0.2454,0.2508,0.2588,0.2602,0.2653,0.2644,0.272,0.274,0.2767,0.2934,0.2878,0.2893,0.3046,0.3134,0.3143,0.3152,0.3302,0.3329,0.3351,0,0,0,0,0,0,0.2453,0.2473,0.2465,0.2507,0.2563,0.2607,0.2648,0.2673,0.2748,0.2744,0.2779,0.2798,0.2899,0.294,0.2878,0.3145,0.3055,0.3067,0.3165,0.319,0.321,0.3149,0.29,0,0,0,0,0,0.2452,0.2493,0.2515,0.2559,0.2571,0.2608,0.2642,0.2681,0.2728,0.2766,0.2809,0.2871,0.2942,0.3036,0.3058,0.3214,0.3157,0.3333,0.3354,0.3371,0.3332,0.3298,0.331,0.3187,0.3187,0.3187,0,0,0.2465,0.2488,0.2505,0.2567,0.2593,0.2667,0.2641,0.2709,0.2798,0.2766,0.2882,0.2891,0.297,0.3116,0.3182,0.3194,0.3401,0.3382,0.3397,0.3347,0.3309,0.332,0.333,0.3193,0.3192,0.3191,0,0,0.2541,0.2535,0.2599,0.2651,0.2701,0.2725,0.2753,0.2804,0.286,0.2955,0.2944,0.3027,0.3159,0.3252,0.332,0.3468,0.3438,0.3529,0.3673,0.3645,0.3653,0.3659,0.3692,0.3699,0.3625,0.3626,0.3626,0,0.256,0.2611,0.2638,0.2723,0.2728,0.2759,0.2814,0.2912,0.299,0.2986,0.302,0.3123,0.3228,0.3384,0.3493,0.3519,0.3487,0.3582,0.3666,0.367,0.3673,0.3704,0.3709,0.3635,0.3634,0.3633,0.3632,0,0.2665,0.2719,0.2757,0.2853,0.2906,0.2944,0.3028,0.3084,0.3111,0.3157,0.3235,0.3339,0.3404,0.3524,0.3593,0.3717,0.3684,0.3622,0.3592,0.3694,0.3724,0.3726,0.3648,0.3645,0.3642,0.364,0,0,0.2637,0.2788,0.2803,0.2819,0.2931,0.2963,0.3098,0.3152,0.3184,0.3306,0.3339,0.3562,0.3548,0.362,0.3716,0.3802,0.3907,0.3781,0.3775,0.3793,0.3873,0.3735,0.3724,0.384,0.384,0.3839,0.3916,0,0.2675,0.2794,0.2879,0.2969,0.298,0.3035,0.3146,0.3224,0.3284,0.3347,0.3459,0.3546,0.3625,0.3692,0.3776,0.3826,0.3905,0.3893,0.3785,0.3783,0.3627,0.3717,0.3488,0.3521,0.3918,0.3918,0.3918,0,0.2709,0.2757,0.2831,0.2905,0.2915,0.3014,0.303,0.3151,0.3275,0.3326,0.3408,0.3471,0.3666,0.3688,0.3814,0.3792,0.3844,0.3889,0.389,0.3675,0.3644,0.3466,0.3509,0.3921,0.3921,0.392,0.392,0,0.2553,0.2703,0.2716,0.275,0.2883,0.2912,0.2986,0.3103,0.3174,0.3316,0.3365,0.3491,0.3608,0.3644,0.381,0.3802,0.3884,0.3867,0.3778,0.3772,0.3505,0.3474,0.388,0.388,0.388,0.388,0.388,0,0.248,0.2504,0.2649,0.265,0.2669,0.2805,0.2858,0.2953,0.3102,0.3188,0.3349,0.3439,0.3592,0.368,0.3767,0.3788,0.3839,0.3781,0.3759,0.3571,0.3545,0.3803,0.3793,0.3883,0.3882,0.3882,0.3881,0,0.2332,0.2429,0.2453,0.2566,0.2607,0.2626,0.2811,0.286,0.3022,0.3144,0.3208,0.3417,0.3529,0.3645,0.3754,0.3742,0.3775,0.3759,0.3569,0.3519,0.3704,0.3703,0.3653,0.3648,0.3644,0.3641,0.3638,0,0.2256,0.2255,0.2366,0.2393,0.2461,0.2537,0.2605,0.2794,0.2878,0.3126,0.3176,0.3344,0.3437,0.3536,0.3552,0.3593,0.3693,0.3372,0.3294,0.3685,0.367,0.3676,0.368,0.3077,0.307,0.3064,0.3059,0,0.2089,0.2156,0.2188,0.2256,0.2326,0.24,0.2529,0.2586,0.2819,0.2938,0.3099,0.319,0.3298,0.323,0.3263,0.3258,0.3337,0.3247,0.3676,0.3144,0.3138,0.3126,0.3149,0.3007,0.3012,0.3016,0.3019,0.3021,0.1974,0.1978,0.2059,0.2124,0.2205,0.2284,0.232,0.2468,0.259,0.2722,0.2873,0.2918,0.2968,0.2882,0.2834,0.282,0.303,0.2923,0.2943,0.2969,0.2861,0.2844,0.2645,0.2648,0.265,0.2653,0.2655,0,0.1829,0.1891,0.193,0.2021,0.207,0.2173,0.2281,0.2292,0.2396,0.2485,0.2554,0.2356,0.235,0.2428,0.2341,0.2342,0.2349,0.2246,0.2254,0.2308,0.2356,0.2218,0.183,0.1827,0.1825,0.1822,0,0,0.1762,0.1772,0.1822,0.1873,0.1956,0.1997,0.2043,0.2061,0.211,0.2032,0.2026,0.2143,0.233,0.2015,0.1999,0.191,0.2084,0.1838,0.2506,0.2568,0.2612,0.276,0.2608,0,0,0,0,0]},{"header":{"parameterUnit":"m.s-1","parameterCategory":2,"la1":30.2991,"la2":30.254,"lo1":-89.0895,"lo2":-89.0444,"dy":0.0017,"dx":0.0017,"nx":28,"ny":28,"refTime":"2023-08-03T03:00:00:Z","depth":"2","parameterNumber":3,"parameterNumberName":"V-component_of_CURRENTS"},"data":[0,0,0,0,0,0,0,0,0,0,0,0,0,0,0,0,0,0,0,0,0,0,0,0,0,0,0,0,0,0,0,0,0,0,0,0,0,0,0,0,0,0,0,0,0,0,0,0,0,0,0,0,0,0,0,0,0,0,-0.0241,-0.0242,0,-0.038,-0.0382,-0.0384,-0.0476,-0.0476,-0.0476,-0.0476,-0.0526,-0.0527,-0.0529,0,0,0,0,0,0,0,0,0,0,0,0,0,-0.0184,-0.0184,-0.024,-0.0242,-0.0243,-0.0379,-0.0382,-0.0384,-0.0476,-0.0476,-0.0476,-0.0476,-0.0526,-0.0527,-0.0529,0,0,0,0,0,0,0,0,0,0,0,0,0,-0.026,-0.0184,-0.024,-0.03,-0.0306,-0.0379,-0.0382,-0.0385,-0.0476,-0.0476,-0.0476,-0.0476,-0.0525,-0.0527,-0.0529,-0.054,0,0,-0.0535,-0.0536,0,0,0,0,0,0,0,0,-0.0255,-0.0262,-0.029,-0.0296,-0.0303,-0.0405,-0.038,-0.043,-0.0476,-0.0418,-0.0476,-0.0476,-0.0473,-0.0479,-0.0516,-0.0543,-0.0545,-0.0535,-0.0536,-0.0537,-0.0538,0,0,0,0,0,0,0,-0.025,-0.0258,-0.0302,-0.0291,-0.0299,-0.0364,-0.0374,-0.0392,-0.0447,-0.0423,-0.0429,-0.0434,-0.0477,-0.0514,-0.0517,-0.0546,-0.0535,-0.0537,-0.0538,-0.0539,-0.0502,-0.05,0,0,0,0,0,0,-0.0213,-0.0252,-0.0297,-0.0306,-0.0272,-0.0364,-0.0376,-0.0377,-0.0449,-0.0459,-0.0434,-0.0438,-0.051,-0.0515,-0.0519,-0.0507,-0.0537,-0.0539,-0.054,-0.0504,-0.0502,-0.0499,0,0,0,0,0,0,-0.0211,-0.0215,-0.0292,-0.0277,-0.0291,-0.0363,-0.0365,-0.038,-0.0402,-0.0457,-0.0466,-0.0438,-0.0511,-0.0516,-0.0533,-0.051,-0.054,-0.0542,-0.0507,-0.0503,-0.05,-0.05,0,0,0,0,0,0,-0.0209,-0.0214,-0.0207,-0.0274,-0.029,-0.0312,-0.0365,-0.0382,-0.0403,-0.041,-0.0463,-0.047,-0.0511,-0.0529,-0.0535,-0.0513,-0.0543,-0.0509,-0.0505,-0.0501,-0.0503,-0.0497,-0.0493,0,0,0,0,0,-0.0206,-0.0198,-0.0206,-0.0212,-0.0276,-0.031,-0.0324,-0.0382,-0.0403,-0.0404,-0.0452,-0.0467,-0.0505,-0.0531,-0.0537,-0.0516,-0.0511,-0.0506,-0.0502,-0.0505,-0.0498,-0.0493,0,0,0,0,0,0,-0.0175,-0.0208,-0.0218,-0.022,-0.0247,-0.0322,-0.0337,-0.0365,-0.0409,-0.0413,-0.0467,-0.0476,-0.0498,-0.0483,-0.051,-0.0483,-0.0499,-0.0495,-0.0499,-0.0493,-0.0488,-0.0508,-0.0545,0,0,0,0,0,-0.0159,-0.0159,-0.0195,-0.0195,-0.0205,-0.0264,-0.0286,-0.0315,-0.036,-0.0381,-0.0426,-0.0449,-0.0484,-0.0469,-0.0513,-0.0484,-0.0532,-0.046,-0.0454,-0.0451,-0.0465,-0.0537,-0.0542,-0.0483,-0.0483,-0.0483,0,0,-0.0149,-0.0163,-0.0166,-0.0187,-0.0222,-0.0256,-0.0279,-0.0298,-0.0331,-0.0374,-0.0432,-0.0463,-0.0483,-0.0495,-0.0491,-0.047,-0.0486,-0.0444,-0.0442,-0.0459,-0.0533,-0.054,-0.0546,-0.048,-0.0481,-0.0481,0,0,-0.0152,-0.0137,-0.0154,-0.0169,-0.0195,-0.0229,-0.0221,-0.0281,-0.0306,-0.0336,-0.0399,-0.0414,-0.0433,-0.0469,-0.0479,-0.0451,-0.0494,-0.0421,-0.0377,-0.0446,-0.0454,-0.0461,-0.052,-0.0533,-0.0374,-0.0374,-0.0374,0,-0.0145,-0.0169,-0.0162,-0.0188,-0.0208,-0.0212,-0.0246,-0.0271,-0.033,-0.0353,-0.0339,-0.0423,-0.0433,-0.0473,-0.0451,-0.0448,-0.0486,-0.0411,-0.0447,-0.0455,-0.0463,-0.0522,-0.0536,-0.0373,-0.0373,-0.0373,-0.0373,0,-0.0176,-0.0193,-0.0199,-0.0236,-0.0246,-0.0263,-0.0285,-0.0298,-0.0308,-0.0344,-0.0383,-0.0408,-0.0447,-0.0426,-0.0425,-0.046,-0.0472,-0.0478,-0.0481,-0.047,-0.0531,-0.0546,-0.0372,-0.0372,-0.0373,-0.0373,0,0,-0.0216,-0.0221,-0.0235,-0.0244,-0.027,-0.0278,-0.0308,-0.0346,-0.0357,-0.0384,-0.0418,-0.0446,-0.0448,-0.0457,-0.0455,-0.0465,-0.0533,-0.046,-0.0464,-0.055,-0.0682,-0.0579,-0.0586,-0.0548,-0.0551,-0.0553,-0.0702,0,-0.0266,-0.0295,-0.0298,-0.0336,-0.0358,-0.0351,-0.0371,-0.0389,-0.0391,-0.0415,-0.043,-0.0452,-0.046,-0.0437,-0.0475,-0.0523,-0.0571,-0.0492,-0.0652,-0.0656,-0.0594,-0.0599,-0.0549,-0.0668,-0.0717,-0.0719,-0.0721,0,-0.035,-0.0345,-0.0374,-0.0369,-0.0376,-0.0385,-0.039,-0.0403,-0.0425,-0.042,-0.0452,-0.0465,-0.0499,-0.0482,-0.0617,-0.0562,-0.0632,-0.0665,-0.0673,-0.0593,-0.0581,-0.0684,-0.0694,-0.0747,-0.0744,-0.0743,-0.0741,0,-0.04,-0.0424,-0.0429,-0.0431,-0.0417,-0.0414,-0.0402,-0.041,-0.0383,-0.041,-0.0375,-0.0477,-0.0455,-0.0591,-0.0626,-0.0638,-0.0755,-0.0797,-0.0799,-0.0794,-0.079,-0.0778,-0.0939,-0.0938,-0.0938,-0.0938,-0.0937,0,-0.0469,-0.0482,-0.0436,-0.0433,-0.0407,-0.0409,-0.0378,-0.0373,-0.0349,-0.0287,-0.0363,-0.0322,-0.047,-0.0527,-0.0644,-0.0731,-0.0793,-0.081,-0.0827,-0.078,-0.0765,-0.086,-0.0849,-0.0943,-0.0942,-0.0941,-0.094,0,-0.051,-0.0502,-0.0487,-0.0445,-0.0424,-0.039,-0.0303,-0.0263,-0.0256,-0.0172,-0.0159,-0.0204,-0.0266,-0.0408,-0.0578,-0.0693,-0.0821,-0.0846,-0.0756,-0.0758,-0.0835,-0.0822,-0.0934,-0.0932,-0.093,-0.0928,-0.0927,0,-0.0511,-0.0516,-0.0455,-0.0403,-0.0365,-0.0307,-0.0244,-0.0212,-0.0139,-0.0072,-0.0011,-0.0043,-0.0011,-0.0233,-0.0446,-0.0665,-0.0727,-0.0773,-0.0795,-0.0831,-0.0837,-0.0826,-0.0816,-0.0811,-0.0808,-0.0807,-0.0805,0,-0.0484,-0.0471,-0.0425,-0.0325,-0.0246,-0.0159,-0.006,0.0017,0.0088,0.0184,0.0308,0.0338,0.0146,-0.0022,-0.0299,-0.0465,-0.0737,-0.074,-0.0833,-0.0774,-0.0713,-0.0718,-0.0713,-0.0789,-0.079,-0.0792,-0.0792,-0.0793,-0.043,-0.038,-0.0312,-0.0214,-0.0119,0.0018,0.0124,0.0258,0.0423,0.0615,0.0574,0.0655,0.0356,0.0067,-0.0217,-0.0537,-0.0578,-0.0716,-0.0724,-0.0733,-0.0647,-0.0581,-0.0617,-0.0618,-0.0619,-0.0619,-0.0619,0,-0.0336,-0.0285,-0.0191,-0.0056,0.0079,0.0094,0.0277,0.0428,0.0682,0.0829,0.0964,0.0765,0.0557,0.0216,-0.0223,-0.0504,-0.0577,-0.06,-0.0647,-0.066,-0.0672,-0.0585,-0.0539,-0.054,-0.054,-0.054,0,0,-0.0274,-0.017,-0.0124,0.011,0.0207,0.0406,0.0526,0.0764,0.0924,0.1122,0.1174,0.1146,0.0707,0.0407,-0.0004,-0.0254,-0.0387,-0.0305,-0.0341,-0.036,-0.0368,-0.0712,-0.0586,0,0,0,0,0]}],[{"header":{"parameterUnit":"m.s-1","parameterCategory":2,"la1":30.2991,"la2":30.254,"lo1":-89.0895,"lo2":-89.0444,"dy":0.0017,"dx":0.0017,"nx":28,"ny":28,"refTime":"2023-08-03T03:00:00:Z","depth":"4","parameterNumber":2,"parameterNumberName":"U-component_of_CURRENTS"},"data":[0,0,0,0,0,0,0,0,0,0,0,0,0,0,0,0,0,0,0,0,0,0,0,0,0,0,0,0,0,0,0,0,0,0,0,0,0,0,0,0,0,0,0,0,0,0,0,0,0,0,0,0,0,0,0,0,0,0,0.1146,0.1145,0,0.1051,0.105,0.1049,0.1019,0.1019,0.102,0.102,0.1066,0.1067,0.1068,0,0,0,0,0,0,0,0,0,0,0,0,0,0.1193,0.1193,0.1146,0.1145,0.1144,0.1052,0.105,0.1049,0.1019,0.1019,0.102,0.102,0.1066,0.1067,0.1068,0,0,0,0,0,0,0,0,0,0,0,0,0,0.1144,0.1193,0.1146,0.1117,0.1113,0.1052,0.105,0.1049,0.1019,0.102,0.102,0.102,0.1066,0.1067,0.1068,0.1068,0,0,0.1073,0.1073,0,0,0,0,0,0,0,0,0.1147,0.1143,0.1122,0.1118,0.1114,0.1046,0.1083,0.1062,0.1019,0.1056,0.102,0.1021,0.1072,0.1072,0.1053,0.107,0.1072,0.1073,0.1074,0.1074,0.1075,0,0,0,0,0,0,0,0.1151,0.1146,0.111,0.1121,0.1116,0.107,0.1065,0.1078,0.1066,0.1053,0.105,0.1037,0.1071,0.1052,0.1055,0.1072,0.1073,0.1074,0.1075,0.1075,0.1184,0.1186,0,0,0,0,0,0,0.1165,0.115,0.1113,0.1107,0.1131,0.107,0.1064,0.1069,0.1063,0.1061,0.1037,0.1036,0.1049,0.1053,0.1056,0.1163,0.1074,0.1075,0.1076,0.1182,0.1184,0.1186,0,0,0,0,0,0,0.1167,0.1163,0.1117,0.1124,0.1115,0.1069,0.1074,0.1067,0.108,0.1049,0.105,0.1061,0.105,0.1054,0.1104,0.1161,0.1076,0.1077,0.1179,0.1182,0.1185,0.1308,0,0,0,0,0,0,0.1169,0.1165,0.1185,0.1126,0.1115,0.1109,0.1073,0.1064,0.1068,0.1067,0.107,0.1072,0.1051,0.1102,0.1106,0.1161,0.1078,0.1177,0.1181,0.1184,0.1302,0.1315,0.1327,0,0,0,0,0,0.1171,0.1166,0.1187,0.1183,0.1141,0.111,0.1102,0.107,0.107,0.1083,0.1092,0.1074,0.1129,0.1105,0.1109,0.1166,0.1175,0.118,0.1184,0.1296,0.1313,0.1326,0,0,0,0,0,0,0.1178,0.1161,0.1183,0.1173,0.117,0.1106,0.1105,0.1095,0.1107,0.1127,0.1101,0.1105,0.1165,0.1149,0.1124,0.1207,0.1149,0.1154,0.1233,0.1248,0.126,0.1186,0.108,0,0,0,0,0,0.1199,0.1207,0.119,0.119,0.1197,0.1171,0.1159,0.1153,0.1144,0.1149,0.1152,0.1163,0.1179,0.1203,0.1208,0.1261,0.1231,0.1299,0.1311,0.1322,0.1263,0.129,0.1299,0.1201,0.1201,0.1201,0,0,0.1201,0.1193,0.1199,0.1196,0.1193,0.1181,0.1166,0.1172,0.1167,0.1157,0.118,0.1211,0.1201,0.1254,0.1281,0.1256,0.1348,0.1328,0.1337,0.127,0.1296,0.1305,0.1313,0.1204,0.1204,0.1203,0,0,0.1176,0.1217,0.121,0.122,0.1231,0.1216,0.1233,0.1222,0.1235,0.1271,0.1262,0.132,0.1346,0.1347,0.1349,0.1433,0.1409,0.1462,0.1474,0.1505,0.1512,0.1518,0.1548,0.1555,0.1475,0.1475,0.1476,0,0.1182,0.1176,0.1203,0.1198,0.1207,0.1238,0.1238,0.1241,0.125,0.1274,0.1299,0.1352,0.1373,0.1403,0.1433,0.1459,0.1467,0.1426,0.1521,0.1525,0.1529,0.1557,0.1563,0.1482,0.1481,0.148,0.148,0,0.114,0.1159,0.1158,0.1174,0.1193,0.1207,0.1228,0.1271,0.1315,0.1318,0.1394,0.1431,0.1464,0.1501,0.1489,0.1539,0.1536,0.1534,0.148,0.1546,0.1572,0.1577,0.1491,0.1489,0.1487,0.1485,0,0,0.1071,0.1123,0.112,0.115,0.1198,0.1199,0.1241,0.1271,0.1307,0.1363,0.1405,0.1458,0.1511,0.1511,0.1547,0.1559,0.1638,0.1559,0.1558,0.1582,0.1711,0.1654,0.1653,0.1668,0.1668,0.1668,0.1739,0,0.1033,0.1033,0.1066,0.1084,0.1103,0.118,0.1206,0.1256,0.1328,0.1386,0.1444,0.1506,0.1507,0.1579,0.1592,0.163,0.1645,0.1617,0.1643,0.1642,0.1579,0.1653,0.1669,0.1742,0.1743,0.1744,0.1744,0,0.0959,0.0981,0.1002,0.1079,0.1096,0.112,0.1222,0.1257,0.1348,0.1421,0.1501,0.1547,0.1609,0.1605,0.1664,0.1657,0.167,0.1675,0.1679,0.1558,0.1589,0.1648,0.1751,0.175,0.175,0.1749,0.1749,0,0.0884,0.0927,0.0956,0.0981,0.1066,0.1117,0.1177,0.1277,0.133,0.1466,0.1541,0.1606,0.1687,0.1697,0.174,0.1721,0.1777,0.1774,0.1714,0.1713,0.1686,0.1678,0.1763,0.1763,0.1763,0.1763,0.1763,0,0.0813,0.0826,0.0937,0.095,0.1,0.1098,0.1173,0.1257,0.1384,0.1446,0.157,0.1635,0.1709,0.1759,0.1761,0.1766,0.182,0.1693,0.1717,0.1747,0.1744,0.1693,0.1684,0.1766,0.1765,0.1764,0.1764,0,0.0712,0.0778,0.0812,0.0925,0.0966,0.1014,0.1156,0.1219,0.1369,0.147,0.1523,0.1674,0.1768,0.1814,0.1859,0.1812,0.1814,0.1788,0.1829,0.1859,0.1718,0.1715,0.1728,0.1727,0.1725,0.1724,0.1723,0,0.0654,0.0672,0.078,0.0818,0.0877,0.0971,0.1041,0.1196,0.1277,0.1472,0.1514,0.1655,0.1737,0.1771,0.1826,0.1848,0.1808,0.1803,0.171,0.1687,0.1711,0.171,0.1709,0.1721,0.1721,0.172,0.172,0,0.0559,0.0614,0.065,0.073,0.0809,0.0871,0.0997,0.104,0.1226,0.1359,0.1482,0.1552,0.1654,0.1718,0.176,0.1756,0.1809,0.1787,0.1788,0.1701,0.1679,0.1703,0.1704,0.1715,0.1716,0.1716,0.1716,0,0.0488,0.0491,0.0564,0.0634,0.0714,0.077,0.0839,0.0964,0.1054,0.1294,0.1322,0.1494,0.1625,0.1671,0.1704,0.172,0.1677,0.1604,0.1613,0.162,0.1552,0.1506,0.1496,0,0,0,0,0,0.0424,0.0432,0.0474,0.0536,0.0621,0.0674,0.0811,0.0899,0.1075,0.113,0.1228,0.1326,0.143,0.1524,0.1516,0.1636,0.1662,0.1619,0.1576,0.1688,0.1694,0.1625,0,0,0,0,0,0,0.0374,0.04,0.043,0.046,0.0498,0.0571,0.0655,0.0776,0.0831,0.102,0.1092,0.1237,0.1359,0.1411,0.1483,0.1509,0.1454,0.1727,0.1724,0.1685,0.169,0.1694,0.1626,0,0,0,0,0]},{"header":{"parameterUnit":"m.s-1","parameterCategory":2,"la1":30.2991,"la2":30.254,"lo1":-89.0895,"lo2":-89.0444,"dy":0.0017,"dx":0.0017,"nx":28,"ny":28,"refTime":"2023-08-03T03:00:00:Z","depth":"4","parameterNumber":3,"parameterNumberName":"V-component_of_CURRENTS"},"data":[0,0,0,0,0,0,0,0,0,0,0,0,0,0,0,0,0,0,0,0,0,0,0,0,0,0,0,0,0,0,0,0,0,0,0,0,0,0,0,0,0,0,0,0,0,0,0,0,0,0,0,0,0,0,0,0,0,0,-0.0126,-0.0126,0,-0.0133,-0.0133,-0.0133,-0.0137,-0.0137,-0.0138,-0.0138,-0.0213,-0.0215,-0.0217,0,0,0,0,0,0,0,0,0,0,0,0,0,-0.0115,-0.0115,-0.0126,-0.0126,-0.0126,-0.0133,-0.0133,-0.0133,-0.0137,-0.0137,-0.0138,-0.0138,-0.0213,-0.0215,-0.0217,0,0,0,0,0,0,0,0,0,0,0,0,0,-0.0119,-0.0115,-0.0126,-0.0131,-0.0132,-0.0133,-0.0133,-0.0133,-0.0137,-0.0137,-0.0138,-0.0138,-0.0212,-0.0215,-0.0217,-0.0228,0,0,-0.0226,-0.0227,0,0,0,0,0,0,0,0,-0.0119,-0.0119,-0.013,-0.0131,-0.0131,-0.0136,-0.0157,-0.0169,-0.0137,-0.0133,-0.0138,-0.0138,-0.0195,-0.0199,-0.0196,-0.0232,-0.0235,-0.0226,-0.0228,-0.0229,-0.023,0,0,0,0,0,0,0,-0.0118,-0.0119,-0.0127,-0.013,-0.0131,-0.0133,-0.0133,-0.0159,-0.0162,-0.0133,-0.0134,-0.0138,-0.0196,-0.0193,-0.0198,-0.0236,-0.0226,-0.0228,-0.023,-0.0231,-0.0388,-0.039,0,0,0,0,0,0,-0.0121,-0.0118,-0.0127,-0.0127,-0.0128,-0.0133,-0.0133,-0.0133,-0.016,-0.0165,-0.0138,-0.0138,-0.0188,-0.0195,-0.0201,-0.0286,-0.0229,-0.0231,-0.0233,-0.0385,-0.0388,-0.0391,0,0,0,0,0,0,-0.0121,-0.0122,-0.0126,-0.0125,-0.0126,-0.0133,-0.0132,-0.0133,-0.0137,-0.0163,-0.0169,-0.0142,-0.0189,-0.0197,-0.0243,-0.0287,-0.0233,-0.0235,-0.0382,-0.0386,-0.039,-0.0412,0,0,0,0,0,0,-0.012,-0.0121,-0.012,-0.0125,-0.0126,-0.0139,-0.0132,-0.0133,-0.0139,-0.014,-0.0169,-0.0175,-0.019,-0.0239,-0.0246,-0.029,-0.0237,-0.0379,-0.0384,-0.0388,-0.0408,-0.0416,-0.0423,0,0,0,0,0,-0.012,-0.0125,-0.012,-0.0121,-0.0125,-0.0139,-0.014,-0.0145,-0.0139,-0.0147,-0.0173,-0.0175,-0.0275,-0.0243,-0.025,-0.0296,-0.0377,-0.0383,-0.0388,-0.0405,-0.0415,-0.0423,0,0,0,0,0,0,-0.0122,-0.0126,-0.0121,-0.0126,-0.0135,-0.0141,-0.0149,-0.0147,-0.0169,-0.0173,-0.0192,-0.0202,-0.0263,-0.0278,-0.0242,-0.036,-0.0333,-0.034,-0.0343,-0.0353,-0.036,-0.0275,-0.0239,0,0,0,0,0,-0.012,-0.0125,-0.0129,-0.0136,-0.014,-0.0142,-0.0147,-0.015,-0.017,-0.0178,-0.0202,-0.0243,-0.0292,-0.0318,-0.0357,-0.0409,-0.0392,-0.0451,-0.0458,-0.0464,-0.0405,-0.044,-0.0444,-0.041,-0.041,-0.041,0,0,-0.0124,-0.0126,-0.013,-0.0137,-0.0142,-0.0142,-0.0146,-0.016,-0.016,-0.0186,-0.021,-0.0264,-0.0311,-0.0376,-0.0407,-0.0394,-0.0476,-0.0472,-0.0476,-0.0411,-0.0446,-0.0449,-0.0451,-0.0414,-0.0413,-0.0412,0,0,-0.0133,-0.0136,-0.014,-0.0144,-0.0154,-0.0154,-0.0158,-0.0172,-0.0181,-0.0216,-0.0246,-0.0313,-0.0379,-0.0422,-0.0452,-0.0522,-0.0512,-0.0562,-0.053,-0.0568,-0.0569,-0.057,-0.0581,-0.0583,-0.0569,-0.0569,-0.0569,0,-0.0142,-0.0123,-0.0145,-0.0146,-0.0132,-0.0156,-0.014,-0.0163,-0.0193,-0.019,-0.0231,-0.0326,-0.0394,-0.0444,-0.0487,-0.0534,-0.0535,-0.049,-0.0572,-0.0572,-0.0572,-0.0584,-0.0585,-0.0571,-0.057,-0.057,-0.057,0,-0.0144,-0.0124,-0.013,-0.0124,-0.0126,-0.012,-0.0141,-0.0155,-0.0177,-0.019,-0.0247,-0.0343,-0.0386,-0.0461,-0.0497,-0.0546,-0.0542,-0.0574,-0.0534,-0.0576,-0.0588,-0.0588,-0.0573,-0.0572,-0.0572,-0.0572,0,0,-0.0163,-0.0131,-0.013,-0.0084,-0.0098,-0.0085,-0.0105,-0.0096,-0.0082,-0.0163,-0.0153,-0.0293,-0.033,-0.0364,-0.0445,-0.0496,-0.0554,-0.0531,-0.0533,-0.0513,-0.0609,-0.0589,-0.0588,-0.0599,-0.0599,-0.0599,-0.0624,0,-0.0142,-0.0094,-0.0099,-0.0041,0.0003,-0.0015,-0.0016,-0.0026,-0.0059,-0.0073,-0.017,-0.0213,-0.03,-0.0342,-0.0406,-0.0518,-0.055,-0.054,-0.0592,-0.0592,-0.0547,-0.0586,-0.0598,-0.0625,-0.0625,-0.0625,-0.0625,0,-0.0115,-0.0076,-0.0004,0.0074,0.0086,0.0099,0.0139,0.0131,0.0088,0.005,-0.0006,-0.0075,-0.0171,-0.0248,-0.0394,-0.0382,-0.0468,-0.0551,-0.0555,-0.0506,-0.0572,-0.0572,-0.0625,-0.0625,-0.0625,-0.0625,-0.0625,0,-0.0039,0.0012,0.0096,0.0115,0.016,0.0189,0.0203,0.018,0.0189,0.0136,0.0117,0.0018,-0.0057,-0.0168,-0.0356,-0.0372,-0.0501,-0.0556,-0.0597,-0.0597,-0.0592,-0.059,-0.0606,-0.0606,-0.0606,-0.0606,-0.0606,0,0.0035,0.0104,0.0144,0.0194,0.0274,0.0277,0.0339,0.0317,0.0298,0.0305,0.0195,0.0159,-0.0042,-0.0152,-0.03,-0.0446,-0.0459,-0.0557,-0.0596,-0.061,-0.061,-0.0593,-0.0592,-0.0607,-0.0607,-0.0606,-0.0606,0,0.0126,0.0156,0.0251,0.0305,0.0323,0.0379,0.0419,0.045,0.0415,0.0413,0.0398,0.0261,0.0105,-0.0072,-0.0278,-0.0379,-0.0523,-0.0561,-0.0531,-0.0574,-0.0599,-0.0599,-0.0593,-0.0593,-0.0592,-0.0592,-0.0591,0,0.0188,0.0248,0.0321,0.0361,0.0389,0.0461,0.0497,0.0499,0.0518,0.0468,0.0463,0.0334,0.0221,-0.0033,-0.0234,-0.046,-0.0502,-0.0551,-0.0587,-0.0555,-0.0595,-0.0595,-0.0596,-0.0591,-0.059,-0.059,-0.059,0,0.0282,0.0299,0.0355,0.0426,0.0483,0.0552,0.0601,0.0625,0.0616,0.0598,0.0517,0.0378,0.0213,-0.0013,-0.0184,-0.0358,-0.0513,-0.0547,-0.0549,-0.0583,-0.0553,-0.0592,-0.0593,-0.0588,-0.0589,-0.0589,-0.0589,0,0.0321,0.0355,0.0404,0.047,0.0541,0.0595,0.0634,0.0649,0.0667,0.0611,0.0586,0.0395,0.0284,0.0042,-0.0125,-0.0285,-0.0332,-0.0381,-0.0394,-0.0398,-0.0348,-0.0281,-0.0239,0,0,0,0,0,0.0345,0.0367,0.0435,0.0493,0.057,0.0606,0.0671,0.0698,0.0701,0.0659,0.0626,0.0472,0.0217,0.0097,-0.0057,-0.0128,-0.0366,-0.0311,-0.0429,-0.0579,-0.0581,-0.0555,0,0,0,0,0,0,0.0345,0.04,0.0426,0.0502,0.0544,0.0622,0.0664,0.0676,0.0654,0.0633,0.0498,0.0442,0.0189,0.0298,-0.0062,-0.0111,-0.0202,-0.043,-0.0433,-0.0577,-0.0579,-0.0581,-0.0556,0,0,0,0,0]}]]